Jacqueline Cochran Regional Airport Palm Springs US
ICAO: KTRM
IATA: TRM
Category: Medium
Scheduled Services: No

Elevation: -115 ft
TransAlt. 18000 ft.

Airport Communications:
PALM SPRINGS APP/DEP:135.275
ASOS:118.325
RIVERSIDE RDO:122.3
CTAF/UNICOM:123

KTRM Zoom In..

If you have problems with the map follow the link
https://www.worldairports.se/pages/airport.php?
ICAO=KTRM

Runways:

(A) RW 12 length 4995 ft width 100 ft
---- / hdg 122

(B) RW 17 length 8500 ft width 150 ft
---- / hdg 167

(C) RW 30 length 4995 ft width 100 ft
---- / hdg 302

(D) RW 35 length 8500 ft width 150 ft
---- / hdg 347

Location; KTRM
Day. 22 / Time. 09.52 Zulu
* Altimeter: 30.12
* Temperature: 07° c. 44.6°f.
* Wind from: KTR° Speed M kn.
Dewpoint: 04° c.
Visibility: 9 Statute Miles.
Clouds: Clear (automated report).

KTRM 220952Z AUTO 00000KT 9SM CLR 07/04 A3012 RMK AO2 SLP200 T00670039


Wind From KTR°
Speed M kn.

 
 
jpsmedia worldairports.se 2020   terms of use